Location: *
(50.8333°N, 4.3500°E)
Time: 22:13:25
(UTC+00:00)

Daily predictions for brighter satellites

Satellite Brightness Start Highest point End
(mag) Time Altitude Azimuth Time Altitude Azimuth Time Altitude Azimuth
NOSS 3-4 (A) 4.2 18:23:19 10° NW 18:29:55 51° NE 18:37:08 10° ESE
NOSS 3-4 (C) 4.2 18:23:25 10° NW 18:30:00 51° NNE 18:37:13 10° ESE
SPOT 3 Rocket 4.1 18:25:29 10° SE 18:30:12 38° ENE 18:34:56 10° N
Cosmos 2333 Rocket 2.5 18:25:18 10° NNW 18:30:53 51° NE 18:36:26 10° SE
Cosmos 1536 Rocket 3.6 18:27:14 10° N 18:31:34 62° ENE 18:35:51 10° SSE
ARGOS 4.0 18:28:49 10° ESE 18:33:26 31° ENE 18:38:06 10° N
USA 116 4.3 18:31:17 10° N 18:35:40 67° WNW 18:39:30 10° SSW
Cosmos 1666 4.3 18:32:58 10° SW 18:36:31 40° WNW 18:40:06 10° N
YAOGAN 1 4.1 18:36:13 10° SSW 18:40:17 40° W 18:44:24 10° NNW
NOSS 3-3 (A) 4.2 18:35:56 10° SSW 18:41:35 46° ESE 18:47:53 10° NE
NOSS 3-3 (C) 4.3 18:36:03 10° SSW 18:41:42 46° ESE 18:47:59 10° NE
Cosmos 1025 Rocket 3.0 18:38:04 10° N 18:42:21 67° ENE 18:46:36 10° SSE
HJ-1C 3.4 18:40:52 10° SSE 18:44:14 89° ENE 18:47:38 10° NNW
Aureole 1 Rocket 3.5 18:39:57 10° NNW 18:46:00 69° ENE 18:50:30 10° SE
NOSS 0 Rocket 4.4 18:41:57 10° NNW 18:47:56 47° NE 18:53:46 11° ESE
MOS 1 4.3 18:42:15 10° SSE 18:47:57 79° ENE 18:53:41 10° NNW
Cosmos 2237 Rocket 3.1 18:43:25 10° NNW 18:48:34 33° NE 18:53:17 12° ESE
Cosmos 1939 Rocket 3.4 18:48:34 10° S 18:52:23 58° W 18:56:13 10° NNW
Cosmos 405 4.2 18:49:03 10° NNW 18:52:26 45° W 18:55:46 10° S
Cosmos 1441 Rocket 3.9 18:49:16 10° SSE 18:52:42 32° E 18:56:06 10° NNE
SJ-6B 3.1 18:49:48 10° SSE 18:53:49 52° ENE 18:57:49 10° N
BREEZE-M DEB (TANK) 3.3 18:50:59 10° W 18:54:57 87° N 19:03:05 10° E
Cosmos 2074 Rocket 4.1 18:49:36 10° N 18:55:55 86° W 19:02:09 10° S
Cosmos 2151 Rocket 3.5 18:52:00 10° S 18:56:25 84° E 19:00:50 10° NNE
Cosmos 1980 4.4 18:51:44 10° NNW 18:57:02 39° NE 19:01:30 14° ESE
CZ-4C R/B 3.8 18:53:33 10° W 18:58:42 37° NNW 19:04:47 10° NE
USA 234 3.9 18:53:31 10° ENE 18:59:51 54° N 19:06:12 10° W
Cosmos 1544 3.4 18:57:07 10° SSE 19:00:31 41° E 19:03:56 10° NNE
SAR-Lupe-2 3.5 18:58:45 10° NNE 19:02:20 65° ESE 19:05:53 10° S
H-2A R/B 2.2 18:57:46 10° SE 19:02:29 48° ENE 19:07:18 10° N
FREGAT/IRIS 2.7 19:00:34 10° S 19:03:21 71° WSW 19:06:11 10° NNW
SL-08 RB Rocket 4.5 18:59:38 12° SE 19:03:25 35° ENE 19:07:39 10° N
Cosmos 2251 Rocket 4.0 19:02:27 10° NNW 19:07:48 64° WSW 19:13:06 10° S
Meteor 1-12 Rocket 4.2 19:02:55 10° S 19:08:38 69° E 19:14:17 10° NNE
Cosmos 1707 3.0 19:04:51 10° N 19:08:40 47° ENE 19:12:03 13° SSE
Cosmos 1300 Rocket 3.8 19:05:03 10° SSW 19:09:21 72° WNW 19:13:41 10° N
Cosmos 1674 4.5 19:11:38 10° NNE 19:13:54 15° ENE 19:14:23 15° ENE
ATLAS 2AS CENTAUR R/B 3.0 19:06:09 10° NW 19:14:00 88° SW 19:20:33 13° SE
Lacrosse 4 Rocket 4.2 19:12:22 10° WNW 19:14:33 14° WSW 19:16:43 10° SW
Cosmos 2154 Rocket 3.9 19:08:26 10° N 19:14:41 82° E 19:20:54 10° SSE
SL-16 R/B 3.5 19:11:16 10° NNW 19:15:57 25° NE 19:19:18 15° E
SL-8 R/B 4.3 19:12:38 10° SW 19:17:01 37° SSE 19:19:44 20° E
ADEOS Rocket 3.7 19:11:30 10° NNE 19:18:19 46° E 19:25:36 10° S
COSMOS 2428 2.8 19:16:11 10° NNW 19:21:54 78° WSW 19:27:34 10° SSE
USA 186 2.6 19:24:47 10° S 19:28:04 56° W 19:31:27 10° NNW
Cosmos 1455 Rocket 4.1 19:28:37 24° ESE 19:29:22 26° E 19:33:03 10° NNE
Cosmos 2219 Rocket 2.4 19:24:54 10° NNW 19:30:28 69° WSW 19:35:48 11° SSE
CZ-2C R/B 3.3 19:29:08 19° SE 19:32:40 54° ENE 19:37:59 10° N
Cosmos 1190 Rocket 4.2 19:29:20 10° NNW 19:34:33 55° ENE 19:37:29 25° SE
Cosmos 389 Rocket 2.4 19:31:12 10° N 19:34:37 57° ENE 19:35:50 34° SE
Cosmos 1461 2.7 19:30:54 10° SSW 19:34:49 56° SE 19:38:44 10° NE
Resurs 01 Rocket 1.8 19:32:17 23° SE 19:34:49 54° ENE 19:39:10 10° N
SL-8 Rocket 4.1 19:29:14 10° N 19:35:21 54° ENE 19:39:35 20° SE
Terra 3.9 19:35:19 11° ENE 19:36:18 12° NE 19:37:56 10° NNE
BREEZE M DEB (TANK) 1.8 19:34:41 10° WSW 19:36:58 70° S 19:38:44 29° E
Resurs 1-3 3.5 19:34:40 19° SSE 19:37:44 73° ENE 19:42:08 10° N
Cosmos 2360 Rocket 4.4 19:35:35 10° NW 19:39:54 23° WSW 19:44:12 10° SSW
Meteor 1-4 Rocket 2.7 19:36:40 10° N 19:40:13 50° ENE 19:41:04 39° ESE
ASTEX 1 3.7 19:39:15 10° N 19:44:08 70° W 19:48:59 10° SSW
Okean 1 Rocket 3.4 19:43:01 10° SSW 19:47:19 68° WNW 19:51:42 10° N
Cosmos 1437 Rocket 3.4 19:46:10 10° N 19:49:42 34° ENE 19:49:50 34° ENE
Cosmos 2219 3.5 19:44:58 10° S 19:50:23 44° ESE 19:55:49 10° NE
CZ-2C R/B 3.6 19:47:32 10° NE 19:52:13 27° E 19:52:13 27° E
COSMOS 2455 4.4 19:48:50 10° NW 19:54:03 31° WSW 19:59:12 10° S
Cosmos 2227 Rocket 3.1 19:55:32 28° E 19:55:32 28° E 19:59:37 10° NE
ERBS 3.4 19:57:10 10° NW 20:00:20 34° NNE 20:00:58 31° NE
SPOT 1/Viking Rocket 4.4 20:00:14 29° E 20:01:15 32° ENE 20:05:47 10° N
Cosmos 2056 Rocket 3.8 20:00:16 28° SSE 20:02:39 45° ESE 20:07:49 10° NE
Timation 2 Rocket 4.4 19:57:20 10° SW 20:03:54 67° NW 20:10:12 10° NNE
Cosmos 1602 Rocket 4.4 20:01:03 10° N 20:04:58 33° ENE 20:04:58 33° ENE
Meteor 1-24 Rocket 3.9 19:59:32 10° N 20:05:07 54° ENE 20:07:05 38° SE
Meteor 2-17 Rocket 4.4 19:59:37 10° N 20:05:45 87° W 20:09:58 21° S
Cosmos 2297 Rocket 2.7 20:06:19 37° ESE 20:06:19 37° ESE 20:11:18 10° NE
Cosmos 405 Rocket 2.5 20:07:25 65° E 20:07:25 65° E 20:10:59 10° NNE
Cosmos 407 Rocket 3.5 20:04:45 10° NNW 20:09:55 76° WSW 20:12:11 34° S
Meteor 2-5 Rocket 3.7 20:05:19 10° N 20:11:06 80° ENE 20:13:50 34° SSE
ARGOS 3.9 20:08:33 11° S 20:13:30 50° W 20:18:45 10° NNW
Okean 1-7 Rocket 3.9 20:09:42 10° NNW 20:14:05 64° W 20:16:14 29° SSW
Cosmos 2333 Rocket 3.6 20:09:55 10° NW 20:14:58 33° WSW 20:19:50 11° SSW
Cosmos 1624 Rocket 4.0 20:13:24 35° SSE 20:15:24 57° ESE 20:20:30 10° NNE
MetOp-B 4.0 20:15:24 42° SE 20:17:13 74° ENE 20:22:35 10° NNW
Cosmos 1892 Rocket 4.1 20:15:52 10° NNW 20:20:16 57° W 20:22:18 29° SSW
NOSS 3-4 (A) 4.2 20:14:16 10° NW 20:21:04 57° SW 20:25:09 27° S
NOSS 3-4 (C) 4.2 20:14:22 10° NW 20:21:11 58° SW 20:25:13 28° SSE
SPOT 5 3.7 20:23:09 33° ENE 20:23:09 33° ENE 20:27:31 10° N
Cosmos 614 Rocket 4.3 20:18:27 10° NNW 20:23:38 62° WSW 20:25:42 35° S
Cosmos 1805 4.3 20:27:17 34° NE 20:27:17 34° NE 20:29:41 10° NNE
Cosmos 1626 4.1 20:22:48 10° NNE 20:24:25 19° NE 20:24:25 19° NE
GENESIS II 4.3 20:24:46 10° NW 20:28:48 77° NNE 20:28:48 77° NNE
Cosmos 1954 Rocket 3.9 20:24:25 10° NNW 20:29:42 85° ENE 20:30:43 59° SSE
Cosmos 2237 Rocket 2.6 20:27:22 10° NW 20:32:58 57° WSW 20:35:08 36° S
Spot 2 Rocket 3.6 20:34:29 47° S 20:35:53 73° WSW 20:40:58 10° NNW
IGS 5A 4.2 20:37:25 42° NE 20:37:25 42° NE 20:40:39 10° N
Meteor 1-22 Rocket 4.3 20:36:06 50° SSE 20:37:31 66° E 20:43:35 10° NNE
SL-08 R/B 4.5 20:31:40 10° N 20:38:13 86° E 20:40:24 45° SSE
ERS-1 Rocket 3.0 20:40:20 59° ENE 20:40:27 59° ENE 20:45:24 10° N
Cosmos 1980 4.4 20:35:51 10° NW 20:41:15 47° WSW 20:43:21 32° SSW
Landsat 7 3.9 20:41:53 63° ENE 20:41:53 63° ENE 20:46:28 10° N
H-2A R/B 3.8 20:38:03 10° SSW 20:42:11 26° W 20:46:23 10° NW
Cosmos 2181 Rocket 4.3 20:36:00 10° SSW 20:42:11 68° WNW 20:48:32 10° N
USA 234 3.6 20:39:21 32° E 20:42:24 59° NNE 20:48:50 10° WNW
Cosmos 1371 Rocket 4.1 20:39:54 10° SSW 20:45:13 77° WNW 20:50:37 10° NNE
Cosmos 1140 Rocket 3.9 20:40:21 10° NNW 20:45:27 58° WSW 20:46:33 47° SSW
SL-14 R/B 4.5 20:44:25 10° N 20:47:02 36° NNE 20:47:02 36° NNE
CZ-4C R/B 4.3 20:43:49 10° NW 20:49:02 27° N 20:55:00 10° ENE
Cosmos 1674 3.5 20:46:08 10° NNW 20:49:14 47° WNW 20:49:14 47° WNW
Cosmos 676 Rocket 4.4 20:53:55 10° NNW 20:59:05 55° WSW 20:59:45 51° SW
SL-8 R/B 4.5 20:54:26 10° WSW 20:57:43 42° WSW 20:57:43 42° WSW
Nadezhda 3 Rocket 4.0 20:59:21 59° E 20:59:21 59° E 21:05:18 10° NNE
SL-16 R/B 2.1 20:55:04 10° NNW 21:00:46 82° WSW 21:01:11 76° S
Cosmos 1766 4.4 21:04:20 41° NNW 21:04:20 41° NNW 21:07:14 10° N
ADEOS Rocket 4.3 20:57:09 10° N 21:03:49 48° WNW 21:11:01 10° SW
ATLAS 2AS CENTAUR R/B 4.5 20:58:08 10° WNW 21:04:02 25° WSW 21:07:59 16° SSW
Meteor 2-12 Rocket 4.3 20:58:44 10° N 21:04:51 73° ENE 21:05:08 71° ESE
Cosmos 1544 Rocket 4.4 21:05:15 45° W 21:05:49 48° WNW 21:10:10 10° N
Cosmos 1455 Rocket 4.3 21:05:41 31° WSW 21:07:01 39° WNW 21:11:14 10° N
CARTOSAT-1 4.5 21:12:12 45° N 21:12:12 45° N 21:15:15 10° NNW
Resurs 01 Rocket 3.8 21:09:52 16° WSW 21:11:38 20° W 21:14:57 10° NW
Terra 2.5 21:14:13 48° NNE 21:14:13 48° NNE 21:17:51 10° N
RESURS DK-1 3.8 21:12:19 10° NNW 21:14:55 35° N 21:14:55 35° N
Cosmos 2082 4.2 21:19:47 48° NE 21:19:47 48° NE 21:23:54 10° NNE
Cosmos 1821 Rocket 3.8 21:12:03 10° N 21:18:19 89° WSW 21:18:36 82° S
Cosmos 1535 Rocket 4.5 21:15:44 10° N 21:22:03 69° ENE 21:22:03 69° ENE
Meteor 1-21 Rocket 4.3 21:17:47 10° N 21:23:16 72° NE 21:23:16 72° NE
Cosmos 1850 Rocket 4.4 21:25:33 10° NNW 21:29:55 60° NW 21:29:55 60° NW
CZ-2C R/B 3.2 21:27:24 10° N 21:32:49 57° WNW 21:33:43 51° WSW
Cosmos 2219 4.4 21:29:11 10° WSW 21:34:37 41° NW 21:40:04 10° NNE
Cosmos 2227 Rocket 2.7 21:37:14 46° WSW 21:38:32 57° NW 21:44:09 10° NNE
SPOT 1/Viking Rocket 4.4 21:40:52 45° W 21:40:52 45° W 21:45:30 10° NNW
Cosmos 2297 Rocket 3.1 21:48:00 33° WSW 21:50:06 47° NW 21:55:35 10° NNE
SPOT 5 4.4 22:02:23 32° WNW 22:02:23 32° WNW 22:05:42 10° NNW
Cosmos 1943 3.9 22:01:33 10° NNW 22:05:52 52° NNW 22:05:52 52° NNW
Cosmos 2263 Rocket 4.3 22:14:37 17° NE 22:14:37 17° NE 22:16:01 10° NE
USA 234 3.6 22:26:41 58° WNW 22:26:41 58° WNW 22:31:56 10° WNW
CZ-4C R/B 3.7 22:33:02 10° NW 22:39:18 41° NNE 22:41:02 36° ENE
SL-16 R/B 4.5 22:40:49 10° WNW 22:43:03 15° W 22:43:03 15° W
Terra 4.3 22:53:06 16° WNW 22:53:06 16° WNW 22:54:46 10° NW
Mayak 1.6 22:55:36 10° N 22:56:26 16° N 22:56:26 16° N
ATLAS CENTAUR R/B 4.4 23:17:12 13° NE 23:17:12 13° NE 23:17:47 10° NE
Cosmos 2082 Rocket 4.5 23:13:32 10° NNW 23:17:30 19° NNE 23:19:35 16° ENE
USA 267 4.0 23:26:05 10° ENE 23:30:27 45° NE 23:30:27 45° NE
